N0ZMJ-3 Weather Reports


Display with metric or nautical units.
time (UTC)temp
F
wind
direction
speed
MPH
gust
MPH
rain 1hr
in
rain 24hr
in
rain mn
in
humidity
%
barometer
mb
20260901213559 75 88 3.0 5.0 0.00 0.00 0.00 83 1012.7
20260901213428 75 88 1.0 4.0 0.00 0.00 0.00 83 1012.7
20260901212859 75 87 2.0 4.0 0.00 0.00 0.00 83 1012.8
20260901212428 75 87 1.0 4.0 0.00 0.00 0.00 82 1012.9
20260901212200 75 87 1.0 4.0 0.00 0.00 0.00 82 1012.9
20260901211501 75 71 0.0 5.0 0.00 0.00 0.00 84 1012.9
20260901211428 75 71 0.0 5.0 0.00 0.00 0.00 84 1012.9
20260901210800 75 70 2.0 5.0 0.00 0.00 0.00 84 1012.5
20260901210428 75 64 3.0 5.0 0.00 0.00 0.00 83 1012.1
20260901210059 75 64 3.0 5.0 0.00 0.00 0.00 83 1012.1
20260901205428 75 336 1.0 2.0 0.00 0.00 0.00 79 1013.0
20260901205401 75 336 1.0 2.0 0.00 0.00 0.00 79 1013.0
20260901204700 76 337 0.0 0.0 0.00 0.00 0.00 80 1013.4
20260901204428 76 337 0.0 1.0 0.00 0.00 0.00 79 1013.5
20260901204000 76 337 0.0 2.0 0.00 0.00 0.00 77 1013.4
20260901203427 76 336 0.0 2.0 0.00 0.00 0.00 77 1013.1
20260901203300 76 336 0.0 2.0 0.00 0.00 0.00 77 1013.1
20260901202600 77 335 0.0 4.0 0.00 0.00 0.00 77 1013.1
20260901202427 77 313 1.0 4.0 0.00 0.00 0.00 76 1013.0
20260901201859 77 356 1.0 5.0 0.00 0.00 0.00 76 1012.9
20260901201427 77 52 2.0 5.0 0.00 0.00 0.00 75 1012.9
20260901201158 77 52 2.0 5.0 0.00 0.00 0.00 75 1012.9
20260901200502 77 24 1.0 5.0 0.00 0.00 0.00 74 1012.8
20260901200428 77 24 1.0 5.0 0.00 0.00 0.00 74 1012.8
20260901195759 77 56 2.0 5.0 0.00 0.00 0.00 75 1012.8
20260901195428 77 67 1.0 5.0 0.00 0.00 0.00 76 1012.8
20260901195100 77 67 1.0 5.0 0.00 0.00 0.00 76 1012.8
20260901194428 77 48 1.0 3.0 0.00 0.00 0.00 77 1012.8
20260901194404 77 48 1.0 3.0 0.00 0.00 0.00 77 1012.8
20260901193659 76 59 2.0 5.0 0.00 0.00 0.00 78 1012.8
20260901193427 76 65 2.0 5.0 0.00 0.00 0.00 81 1012.9
20260901193002 76 333 1.0 4.0 0.00 0.00 0.00 81 1013.0
20260901192427 76 27 1.0 3.0 0.00 0.00 0.00 79 1013.1
20260901192259 76 27 1.0 3.0 0.00 0.00 0.00 79 1013.1
20260901191559 76 42 1.0 3.0 0.00 0.00 0.00 79 1013.0
20260901191427 75 95 0.0 2.0 0.00 0.00 0.00 78 1013.1
20260901190858 76 95 0.0 2.0 0.00 0.00 0.00 77 1013.2
20260901190428 76 95 0.0 3.0 0.00 0.00 0.00 76 1013.0
20260901190159 76 95 0.0 3.0 0.00 0.00 0.00 76 1013.0
20260901185458 76 96 2.0 8.0 0.00 0.00 0.00 75 1013.0
20260901185427 76 96 2.0 8.0 0.00 0.00 0.00 75 1013.0
20260901184805 76 98 2.0 8.0 0.00 0.00 0.00 75 1012.8
20260901184429 76 111 3.0 8.0 0.00 0.00 0.00 76 1012.7
20260901184101 76 111 3.0 8.0 0.00 0.00 0.00 76 1012.7
20260901183429 76 101 4.0 8.0 0.00 0.00 0.00 74 1012.7
20260901183401 76 101 4.0 8.0 0.00 0.00 0.00 74 1012.7
20260901182702 76 103 4.0 8.0 0.00 0.00 0.00 74 1012.8
20260901182429 76 89 4.0 8.0 0.00 0.00 0.00 75 1012.8
20260901182002 76 82 4.0 7.0 0.00 0.00 0.00 76 1012.9
20260901181428 76 92 4.0 6.0 0.00 0.00 0.00 75 1013.1
20260901181300 76 92 4.0 6.0 0.00 0.00 0.00 75 1013.1
20260901180600 75 70 2.0 4.0 0.00 0.00 0.00 76 1013.2
20260901180428 75 60 1.0 3.0 0.00 0.00 0.00 76 1013.3
20260901175900 75 59 2.0 3.0 0.00 0.00 0.00 75 1013.3
20260901175428 75 59 0.0 2.0 0.00 0.00 0.00 75 1013.4
20260901175202 75 59 0.0 2.0 0.00 0.00 0.00 75 1013.4
20260901174500 76 59 2.0 4.0 0.00 0.00 0.00 74 1013.3
20260901174428 76 59 2.0 4.0 0.00 0.00 0.00 74 1013.3
20260901173806 76 59 1.0 4.0 0.00 0.00 0.00 74 1013.4
20260901173428 76 59 2.0 6.0 0.00 0.00 0.00 72 1013.4
20260901173059 76 59 2.0 6.0 0.00 0.00 0.00 72 1013.4
20260901172428 76 92 4.0 7.0 0.00 0.00 0.00 72 1013.2
20260901172402 76 92 4.0 7.0 0.00 0.00 0.00 72 1013.2
20260901171703 76 97 4.0 7.0 0.00 0.00 0.00 72 1013.0
20260901171429 76 91 4.0 6.0 0.00 0.00 0.00 74 1013.2
20260901171000 76 85 3.0 6.0 0.00 0.00 0.00 74 1013.5
20260901170429 76 51 3.0 6.0 0.00 0.00 0.00 74 1013.7
20260901170300 76 51 3.0 6.0 0.00 0.00 0.00 74 1013.7
20260901165604 76 55 3.0 6.0 0.00 0.00 0.00 76 1013.6
20260901165428 76 66 3.0 6.0 0.00 0.00 0.00 77 1013.3
20260901164900 75 68 2.0 5.0 0.00 0.00 0.00 79 1013.4
20260901164428 75 53 1.0 5.0 0.00 0.00 0.00 81 1013.3
20260901164205 75 53 1.0 5.0 0.00 0.00 0.00 81 1013.3
20260901163501 75 70 1.0 3.0 0.00 0.00 0.00 84 1013.2
20260901163428 75 70 1.0 3.0 0.00 0.00 0.00 84 1013.2
20260901162758 74 70 1.0 4.0 0.00 0.00 0.00 85 1013.3
20260901162427 74 31 1.0 4.0 0.00 0.00 0.00 86 1013.4
20260901162100 74 31 1.0 4.0 0.00 0.00 0.00 86 1013.4
20260901161429 73 145 1.0 3.0 0.00 0.00 0.00 88 1013.7
20260901161400 73 145 1.0 3.0 0.00 0.00 0.00 88 1013.7
20260901160700 73 165 1.0 2.0 0.00 0.00 0.00 88 1014.0
20260901160429 72 165 1.0 3.0 0.00 0.00 0.00 89 1014.1
20260901160000 71 165 1.0 3.0 0.00 0.00 0.00 91 1014.1
20260901155428 71 175 1.0 3.0 0.00 0.00 0.00 92 1014.3
20260901155300 71 175 1.0 3.0 0.00 0.00 0.00 92 1014.3
20260901154602 70 232 1.0 2.0 0.00 0.00 0.00 93 1014.3
20260901154427 70 232 1.0 2.0 0.00 0.00 0.00 95 1014.2
20260901153902 69 232 1.0 2.0 0.00 0.00 0.00 96 1014.2
20260901153427 69 233 0.0 0.0 0.00 0.00 0.00 96 1014.1
20260901153159 69 233 0.0 0.0 0.00 0.00 0.00 96 1014.1
20260901152459 68 233 0.0 0.0 0.00 0.00 0.00 97 1014.0
20260901152427 68 233 0.0 0.0 0.00 0.00 0.00 97 1014.0
20260901151801 68 233 0.0 1.0 0.00 0.00 0.00 98 1014.1
20260901151429 68 233 0.0 1.0 0.00 0.00 0.00 99 1013.9
20260901151105 68 233 0.0 1.0 0.00 0.00 0.00 99 1013.9
20260901150429 67 233 0.0 0.0 0.00 0.00 0.00 99 1013.8
20260901150400 67 233 0.0 0.0 0.00 0.00 0.00 99 1013.8
20260901145708 67 233 0.0 1.0 0.00 0.00 0.00 100 1013.7
20260901145429 67 233 0.0 2.0 0.00 0.00 0.00 100 1013.9
20260901145001 67 232 1.0 2.0 0.00 0.00 0.00 100 1013.9
20260901144428 67 232 0.0 2.0 0.00 0.00 0.00 100 1014.0
20260901144301 67 232 0.0 2.0 0.00 0.00 0.00 100 1014.0
20260901143559 67 232 1.0 2.0 0.00 0.00 0.00 100 1014.0
20260901143428 66 232 0.0 2.0 0.00 0.00 0.00 100 1014.0
20260901142900 66 232 0.0 2.0 0.00 0.00 0.00 100 1013.9
20260901142427 66 233 0.0 1.0 0.00 0.00 0.00 100 1014.0
20260901142158 66 233 0.0 1.0 0.00 0.00 0.00 100 1014.0
20260901141501 66 232 0.0 1.0 0.00 0.00 0.00 100 1013.9
20260901141429 66 232 0.0 1.0 0.00 0.00 0.00 100 1013.9
20260901140801 65 232 0.0 1.0 0.00 0.00 0.00 100 1013.8
20260901140429 65 233 0.0 1.0 0.00 0.00 0.00 100 1014.0
20260901135429 64 232 0.0 1.0 0.00 0.00 0.00 100 1014.3
20260901135400 64 232 0.0 1.0 0.00 0.00 0.00 100 1014.3
20260901134428 63 233 0.0 0.0 0.00 0.00 0.00 100 1014.2
20260901134000 63 233 0.0 1.0 0.00 0.00 0.00 100 1014.2
20260901133428 63 232 0.0 1.0 0.00 0.00 0.00 100 1014.3
20260901133303 63 232 0.0 1.0 0.00 0.00 0.00 100 1014.3
20260901132559 63 232 0.0 1.0 0.00 0.00 0.00 100 1014.3
20260901132428 62 233 0.0 0.0 0.00 0.00 0.00 100 1014.2
20260901131903 62 233 0.0 1.0 0.00 0.00 0.00 100 1014.2
20260901131428 62 233 0.0 3.0 0.00 0.00 0.00 100 1014.2
20260901131200 62 233 0.0 3.0 0.00 0.00 0.00 100 1014.2
20260901130502 61 102 2.0 2.0 0.00 0.00 0.00 100 1014.5
20260901130429 61 102 2.0 2.0 0.00 0.00 0.00 100 1014.5
20260901125801 61 102 0.0 0.0 0.00 0.00 0.00 100 1014.2
20260901125429 61 102 0.0 0.0 0.00 0.00 0.00 100 1014.1
20260901125102 61 102 0.0 0.0 0.00 0.00 0.00 100 1014.1
20260901124428 61 102 0.0 0.0 0.00 0.00 0.00 100 1014.1
20260901124400 61 102 0.0 0.0 0.00 0.00 0.00 100 1014.1
20260901123700 60 102 0.0 0.0 0.00 0.00 0.00 100 1014.1
20260901123428 60 102 0.0 0.0 0.00 0.00 0.00 100 1014.0
20260901123003 60 102 0.0 0.0 0.00 0.00 0.00 100 1013.9
20260901122428 60 102 0.0 0.0 0.00 0.00 0.00 100 1014.0
20260901122306 60 102 0.0 0.0 0.00 0.00 0.00 100 1014.0
20260901121603 59 102 0.0 0.0 0.00 0.00 0.00 100 1014.1
20260901121428 59 102 0.0 2.0 0.00 0.00 0.00 100 1014.0
20260901120906 59 102 0.0 2.0 0.00 0.00 0.00 100 1013.9
20260901120428 59 102 0.0 2.0 0.00 0.00 0.00 100 1013.8
20260901120200 59 102 0.0 2.0 0.00 0.00 0.00 100 1013.8
20260901115501 59 102 1.0 2.0 0.00 0.00 0.00 100 1013.7
20260901115428 59 102 1.0 2.0 0.00 0.00 0.00 100 1013.7
20260901114759 59 102 0.0 4.0 0.00 0.00 0.00 100 1013.8
20260901114428 59 102 0.0 4.0 0.00 0.00 0.00 100 1014.0
20260901114102 59 102 0.0 4.0 0.00 0.00 0.00 100 1014.0
20260901113427 59 102 1.0 5.0 0.00 0.00 0.00 100 1013.8
20260901113401 59 102 1.0 5.0 0.00 0.00 0.00 100 1013.8
20260901112704 59 94 2.0 5.0 0.00 0.00 0.00 100 1013.6
20260901112427 59 244 0.0 1.0 0.00 0.00 0.00 100 1013.6
20260901112001 59 245 0.0 0.0 0.00 0.00 0.00 100 1013.3
20260901111427 59 245 0.0 0.0 0.00 0.00 0.00 100 1013.3
20260901111258 59 245 0.0 0.0 0.00 0.00 0.00 100 1013.3
20260901110601 59 245 0.0 0.0 0.00 0.00 0.00 100 1013.5
20260901110428 60 245 0.0 0.0 0.00 0.00 0.00 100 1013.4
20260901105859 60 245 0.0 0.0 0.00 0.00 0.00 100 1013.4
20260901105428 60 245 0.0 0.0 0.00 0.00 0.00 100 1013.5
20260901105201 60 245 0.0 0.0 0.00 0.00 0.00 100 1013.5
20260901104459 60 245 0.0 0.0 0.00 0.00 0.00 100 1013.2
20260901104428 60 245 0.0 0.0 0.00 0.00 0.00 100 1013.2
20260901103427 60 245 0.0 0.0 0.00 0.00 0.00 100 1013.2
20260901103100 60 245 0.0 0.0 0.00 0.00 0.00 100 1013.2
20260901102427 60 245 0.0 0.0 0.00 0.00 0.00 100 1013.1
20260901102401 60 245 0.0 0.0 0.00 0.00 0.00 100 1013.1
20260901101700 60 245 0.0 0.0 0.00 0.00 0.00 100 1013.1
20260901101428 60 245 0.0 0.0 0.00 0.00 0.00 100 1013.1
20260901101002 60 245 0.0 0.0 0.00 0.00 0.00 100 1013.2
20260901100428 60 245 0.0 1.0 0.00 0.00 0.00 100 1013.1
20260901100302 60 245 0.0 1.0 0.00 0.00 0.00 100 1013.1
20260901095602 60 244 0.0 2.0 0.00 0.00 0.00 100 1013.0
20260901095428 61 245 0.0 4.0 0.00 0.00 0.00 100 1012.9
20260901094900 61 198 1.0 4.0 0.00 0.00 0.00 100 1012.9
20260901094428 61 360 0.0 0.0 0.00 0.00 0.00 100 1012.8
20260901094203 61 360 0.0 0.0 0.00 0.00 0.00 100 1012.8
20260901093459 61 360 0.0 0.0 0.00 0.00 0.00 100 1012.7
20260901093428 61 360 0.0 0.0 0.00 0.00 0.00 100 1012.7
20260901092802 61 360 0.0 0.0 0.00 0.00 0.00 100 1012.5
20260901092427 61 360 0.0 0.0 0.00 0.00 0.00 100 1012.6
20260901092059 61 360 0.0 0.0 0.00 0.00 0.00 100 1012.6
20260901091427 62 360 0.0 0.0 0.00 0.00 0.00 100 1012.7
20260901091402 62 360 0.0 0.0 0.00 0.00 0.00 100 1012.7
20260901090659 62 360 0.0 0.0 0.00 0.00 0.00 100 1012.6
20260901090427 62 360 0.0 0.0 0.00 0.00 0.00 100 1012.6
20260901085959 62 360 0.0 0.0 0.00 0.00 0.00 100 1012.7
20260901085427 62 360 0.0 0.0 0.00 0.00 0.00 100 1012.5
20260901085306 62 360 0.0 0.0 0.00 0.00 0.00 100 1012.5
20260901084559 62 360 0.0 0.0 0.00 0.00 0.00 100 1012.6
20260901084427 62 360 0.0 0.0 0.00 0.00 0.00 100 1012.6
20260901083901 62 360 0.0 0.0 0.00 0.00 0.00 100 1012.6
20260901083428 62 360 0.0 0.0 0.00 0.00 0.00 100 1012.5
20260901083200 62 360 0.0 0.0 0.00 0.00 0.00 100 1012.5
20260901082500 62 360 0.0 0.0 0.00 0.00 0.00 100 1012.6
20260901082428 62 360 0.0 0.0 0.00 0.00 0.00 100 1012.6
20260901081800 62 360 0.0 0.0 0.00 0.00 0.00 100 1012.8
20260901081427 62 360 0.0 0.0 0.00 0.00 0.00 100 1012.7
20260901081059 62 360 0.0 0.0 0.00 0.00 0.00 100 1012.7
20260901080427 63 360 0.0 2.0 0.00 0.00 0.00 100 1012.7
20260901080400 63 360 0.0 2.0 0.00 0.00 0.00 100 1012.7
20260901075659 63 360 0.0 2.0 0.00 0.00 0.00 100 1012.8
20260901075427 63 320 0.0 0.0 0.00 0.00 0.00 100 1012.9
20260901074959 63 320 0.0 0.0 0.00 0.00 0.00 100 1012.9
20260901074427 63 320 0.0 0.0 0.00 0.00 0.00 100 1012.9
20260901074301 63 320 0.0 0.0 0.00 0.00 0.00 100 1012.9
20260901073602 63 320 0.0 0.0 0.00 0.00 0.00 100 1012.8
20260901073429 63 320 0.0 0.0 0.00 0.00 0.00 100 1012.8
20260901072900 63 320 0.0 0.0 0.00 0.00 0.00 100 1012.8
20260901072429 63 320 0.0 0.0 0.00 0.00 0.00 100 1012.9
20260901072203 63 320 0.0 0.0 0.00 0.00 0.00 100 1012.9
20260901071500 64 320 0.0 3.0 0.00 0.00 0.00 100 1012.9
20260901071428 64 320 0.0 3.0 0.00 0.00 0.00 100 1012.9
20260901070801 64 319 0.0 1.0 0.00 0.00 0.00 100 1013.0
20260901070428 64 320 0.0 0.0 0.00 0.00 0.00 100 1013.1
20260901070100 64 320 0.0 0.0 0.00 0.00 0.00 100 1013.1
20260901065428 64 320 0.0 0.0 0.00 0.00 0.00 100 1013.3
20260901065400 64 320 0.0 0.0 0.00 0.00 0.00 100 1013.3
20260901064659 65 320 0.0 0.0 0.00 0.00 0.00 100 1013.2
20260901064427 65 320 0.0 0.0 0.00 0.00 0.00 100 1013.3
20260901064001 65 320 0.0 0.0 0.00 0.00 0.00 100 1013.3
20260901063427 65 320 0.0 0.0 0.00 0.00 0.00 100 1013.5
20260901063259 65 320 0.0 0.0 0.00 0.00 0.00 100 1013.5
20260901062602 65 320 0.0 0.0 0.00 0.00 0.00 100 1013.4
20260901062427 65 320 0.0 0.0 0.00 0.00 0.00 100 1013.4
20260901061902 66 320 0.0 0.0 0.00 0.00 0.00 100 1013.4
20260901061429 66 320 0.0 0.0 0.00 0.00 0.00 100 1013.4
20260901061201 66 320 0.0 0.0 0.00 0.00 0.00 100 1013.4
20260901060501 66 320 0.0 0.0 0.00 0.00 0.00 100 1013.6
20260901060429 66 320 0.0 0.0 0.00 0.00 0.00 100 1013.6
20260901055801 66 320 0.0 0.0 0.00 0.00 0.00 100 1013.7
20260901055428 66 320 0.0 0.0 0.00 0.00 0.00 100 1013.7
20260901055106 66 320 0.0 0.0 0.00 0.00 0.00 100 1013.7
20260901054428 66 320 0.0 0.0 0.00 0.00 0.00 100 1013.6
20260901054401 66 320 0.0 0.0 0.00 0.00 0.00 100 1013.6
20260901053658 66 320 0.0 0.0 0.00 0.00 0.00 100 1013.7
20260901053427 66 320 0.0 0.0 0.00 0.00 0.00 100 1013.8
20260901052958 66 320 0.0 0.0 0.00 0.00 0.00 100 1013.7
20260901052427 66 320 0.0 0.0 0.00 0.00 0.00 100 1013.7
20260901052259 66 320 0.0 0.0 0.00 0.00 0.00 100 1013.7
20260901051603 66 320 0.0 1.0 0.00 0.00 0.00 100 1013.7
20260901051427 66 320 0.0 1.0 0.00 0.00 0.00 100 1013.7
20260901050859 66 320 0.0 0.0 0.00 0.00 0.00 100 1013.6
20260901050429 66 320 0.0 0.0 0.00 0.00 0.00 100 1013.7
20260901050200 66 320 0.0 0.0 0.00 0.00 0.00 100 1013.7
20260901045501 66 320 0.0 1.0 0.00 0.00 0.00 100 1013.4
20260901045429 66 320 0.0 1.0 0.00 0.00 0.00 100 1013.4
20260901044801 66 320 0.0 1.0 0.00 0.00 0.00 100 1013.3
20260901044428 67 320 0.0 0.0 0.00 0.00 0.00 100 1013.4
20260901044101 67 320 0.0 0.0 0.00 0.00 0.00 100 1013.4
20260901043428 67 320 0.0 0.0 0.00 0.00 0.00 100 1013.2
20260901043402 67 320 0.0 0.0 0.00 0.00 0.00 100 1013.2
20260901042700 67 320 0.0 0.0 0.00 0.00 0.00 100 1013.2
20260901042428 68 320 0.0 0.0 0.00 0.00 0.00 100 1013.2
20260901042000 68 320 0.0 0.0 0.00 0.00 0.00 100 1013.1
20260901041428 68 320 0.0 0.0 0.00 0.00 0.00 99 1013.1
20260901041302 68 320 0.0 0.0 0.00 0.00 0.00 99 1013.1
20260901040600 68 320 0.0 0.0 0.00 0.00 0.00 99 1013.1
20260901040428 68 320 0.0 0.0 0.00 0.00 0.00 98 1013.0
20260901035900 69 320 0.0 0.0 0.00 0.00 0.00 98 1013.0
20260901035428 69 320 0.0 0.0 0.00 0.00 0.00 98 1013.0
20260901035159 69 320 0.0 0.0 0.00 0.00 0.00 98 1013.0
20260901034501 69 319 0.0 1.0 0.00 0.00 0.00 97 1013.1
20260901034428 69 319 0.0 1.0 0.00 0.00 0.00 97 1013.1
20260901033804 69 320 0.0 0.0 0.00 0.00 0.00 97 1013.1
20260901033427 69 320 0.0 0.0 0.00 0.00 0.00 96 1013.1
20260901033059 69 320 0.0 0.0 0.00 0.00 0.00 96 1013.1
20260901032427 69 320 0.0 0.0 0.00 0.00 0.00 96 1012.9
20260901032359 69 320 0.0 0.0 0.00 0.00 0.00 96 1012.9
20260901031659 69 320 0.0 0.0 0.00 0.00 0.00 96 1012.9
20260901031427 70 320 0.0 0.0 0.00 0.00 0.00 95 1012.8
20260901031002 70 320 0.0 0.0 0.00 0.00 0.00 95 1012.9
20260901030427 70 320 0.0 0.0 0.00 0.00 0.00 94 1012.8
20260901030259 70 320 0.0 0.0 0.00 0.00 0.00 94 1012.8
20260901025600 70 320 0.0 0.0 0.00 0.00 0.00 94 1012.7
20260901025427 70 320 0.0 0.0 0.00 0.00 0.00 93 1012.7
20260901024902 70 320 0.0 0.0 0.00 0.00 0.00 93 1012.7
20260901024429 70 320 0.0 0.0 0.00 0.00 0.00 92 1012.7
20260901024201 70 320 0.0 0.0 0.00 0.00 0.00 92 1012.7
20260901023504 71 320 0.0 0.0 0.00 0.00 0.00 90 1012.6
20260901023429 71 320 0.0 0.0 0.00 0.00 0.00 90 1012.6
20260901022802 71 320 0.0 0.0 0.00 0.00 0.00 89 1012.7
20260901022428 71 320 0.0 1.0 0.00 0.00 0.00 88 1012.5
20260901022059 71 320 0.0 1.0 0.00 0.00 0.00 88 1012.5
20260901021427 72 320 0.0 0.0 0.00 0.00 0.00 88 1012.6
20260901021359 72 320 0.0 0.0 0.00 0.00 0.00 88 1012.6
20260901020659 72 320 0.0 2.0 0.00 0.00 0.00 86 1012.5
20260901020427 72 320 0.0 2.0 0.00 0.00 0.00 86 1012.4
20260901015959 72 319 0.0 2.0 0.00 0.00 0.00 86 1012.4
20260901015427 72 320 0.0 0.0 0.00 0.00 0.00 85 1012.2
20260901015259 72 320 0.0 0.0 0.00 0.00 0.00 85 1012.2
20260901014600 73 320 0.0 0.0 0.00 0.00 0.00 85 1012.1
20260901014429 73 320 0.0 0.0 0.00 0.00 0.00 84 1012.0
20260901013902 73 320 0.0 0.0 0.00 0.00 0.00 84 1012.0
20260901013429 74 320 0.0 0.0 0.00 0.00 0.00 83 1011.9
20260901013200 74 320 0.0 0.0 0.00 0.00 0.00 83 1011.9
20260901012500 74 320 0.0 0.0 0.00 0.00 0.00 81 1012.1
20260901012429 74 320 0.0 0.0 0.00 0.00 0.00 81 1012.1
20260901011802 75 320 0.0 0.0 0.00 0.00 0.00 81 1012.0
20260901011427 75 320 0.0 0.0 0.00 0.00 0.00 79 1012.0
20260901011100 75 320 0.0 0.0 0.00 0.00 0.00 79 1012.0
20260901010427 75 320 0.0 0.0 0.00 0.00 0.00 78 1012.1
20260901010359 75 320 0.0 0.0 0.00 0.00 0.00 78 1012.1
20260901005700 76 320 0.0 0.0 0.00 0.00 0.00 77 1012.1
20260901005427 76 320 0.0 0.0 0.00 0.00 0.00 76 1012.1
20260901004959 76 320 0.0 0.0 0.00 0.00 0.00 75 1012.0
20260901004427 77 320 0.0 0.0 0.00 0.00 0.00 74 1012.0
20260901004300 77 320 0.0 0.0 0.00 0.00 0.00 74 1012.0
20260901003601 77 320 0.0 0.0 0.00 0.00 0.00 72 1012.0
20260901003429 77 320 0.0 0.0 0.00 0.00 0.00 71 1012.1
20260901002900 78 320 0.0 0.0 0.00 0.00 0.00 71 1012.0
20260901002429 78 320 0.0 0.0 0.00 0.00 0.00 70 1011.9
20260901002200 78 320 0.0 0.0 0.00 0.00 0.00 70 1011.9
20260901001505 79 320 0.0 0.0 0.00 0.00 0.00 69 1011.9
20260901001429 79 320 0.0 0.0 0.00 0.00 0.00 69 1011.9
20260901000803 79 320 0.0 2.0 0.00 0.00 0.00 68 1011.9
20260901000428 79 320 0.0 2.0 0.00 0.00 0.00 67 1011.9
20260901000103 79 320 0.0 2.0 0.00 0.00 0.00 67 1011.9
20260831235428 79 319 0.0 2.0 0.00 0.00 0.00 66 1012.0
20260831235403 79 319 0.0 2.0 0.00 0.00 0.00 66 1012.0
20260831234659 79 320 0.0 1.0 0.00 0.00 0.00 64 1011.9
20260831234428 80 319 0.0 2.0 0.00 0.00 0.00 67 1012.1
20260831234003 80 319 0.0 2.0 0.00 0.00 0.00 66 1012.0
20260831233428 80 319 0.0 1.0 0.00 0.00 0.00 68 1012.1
20260831233259 80 319 0.0 1.0 0.00 0.00 0.00 68 1012.1
20260831232600 79 319 0.0 1.0 0.00 0.00 0.00 66 1012.1
20260831232428 80 319 0.0 1.0 0.00 0.00 0.00 66 1012.0
20260831231859 80 320 0.0 2.0 0.00 0.00 0.00 65 1012.0
20260831231428 80 319 0.0 3.0 0.00 0.00 0.00 65 1012.1
20260831231200 80 319 0.0 3.0 0.00 0.00 0.00 65 1012.1
20260831230501 80 323 0.0 3.0 0.00 0.00 0.00 63 1012.1
20260831230428 80 323 0.0 3.0 0.00 0.00 0.00 63 1012.1
20260831225810 80 323 0.0 3.0 0.00 0.00 0.00 63 1012.2
20260831225428 80 320 1.0 3.0 0.00 0.00 0.00 64 1012.3
20260831225101 80 320 1.0 3.0 0.00 0.00 0.00 64 1012.3
20260831224428 80 301 0.0 3.0 0.00 0.00 0.00 64 1012.1
20260831224401 80 301 0.0 3.0 0.00 0.00 0.00 64 1012.1
20260831223703 80 292 0.0 3.0 0.00 0.00 0.00 64 1012.2
20260831223428 80 276 1.0 2.0 0.00 0.00 0.00 66 1012.2
20260831223001 80 304 0.0 2.0 0.00 0.00 0.00 65 1012.2
20260831222428 80 304 0.0 2.0 0.00 0.00 0.00 65 1012.2
20260831222300 80 304 0.0 2.0 0.00 0.00 0.00 65 1012.2
20260831221603 80 292 0.0 2.0 0.00 0.00 0.00 66 1012.3
20260831221428 80 276 1.0 3.0 0.00 0.00 0.00 64 1012.1
20260831220900 81 193 2.0 3.0 0.00 0.00 0.00 66 1012.1
20260831220429 81 328 0.0 2.0 0.00 0.00 0.00 66 1012.2
20260831220203 81 328 0.0 2.0 0.00 0.00 0.00 66 1012.2
20260831215505 81 232 0.0 3.0 0.00 0.00 0.00 66 1012.2
20260831215429 81 232 0.0 3.0 0.00 0.00 0.00 66 1012.2
20260831214802 81 229 2.0 5.0 0.00 0.00 0.00 65 1012.1
20260831214428 81 229 1.0 5.0 0.00 0.00 0.00 65 1012.1
20260831214101 81 229 1.0 5.0 0.00 0.00 0.00 65 1012.1